Time,TemperatureF,DewpointF,PressureIn,WindDirection,WindDirectionDegrees,WindSpeedMPH,WindSpeedGustMPH,Humidity,HourlyPrecipIn,Conditions,Clouds,dailyrainin,SoftwareType,DateUTC
2013-01-21 00:00:00,31.0,15.0,30.04,WNW,300,18.0,25.0,49,-99.99,,,-99.99,,2013-01-21 05:00:00,
2013-01-21 00:03:00,32.0,16.0,30.04,NW,320,16.0,22.0,51,-99.99,,,-99.99,,2013-01-21 05:03:00,
2013-01-21 00:11:00,32.0,15.0,30.04,NW,310,20.0,29.0,48,-99.99,,,-99.99,,2013-01-21 05:11:00,
2013-01-21 00:22:00,32.0,15.0,30.04,NW,310,20.0,29.0,48,-99.99,,,-99.99,,2013-01-21 05:22:00,
2013-01-21 00:32:00,31.0,15.0,30.04,WNW,300,18.0,25.0,49,-99.99,,,-99.99,,2013-01-21 05:32:00,
2013-01-21 00:42:00,31.0,15.0,30.04,WNW,300,18.0,25.0,49,-99.99,,,-99.99,,2013-01-21 05:42:00,
2013-01-21 00:52:00,31.0,15.0,30.04,WNW,300,18.0,25.0,49,-99.99,,,-99.99,,2013-01-21 05:52:00,
2013-01-21 11:11:00,29.0,11.0,30.10,South,170,4.0,9.0,46,-99.99,,,-99.99,,2013-01-21 16:11:00,
2013-01-21 11:22:00,29.0,11.0,30.09,South,180,4.0,9.0,46,-99.99,,,-99.99,,2013-01-21 16:22:00,
2013-01-21 11:32:00,29.0,11.0,30.09,South,180,4.0,9.0,46,-99.99,,,-99.99,,2013-01-21 16:32:00,
2013-01-21 11:42:00,29.0,11.0,30.06,SSE,150,4.0,11.0,46,-99.99,,,-99.99,,2013-01-21 16:42:00,
2013-01-21 11:52:00,30.0,12.0,30.05,South,170,4.0,9.0,46,-99.99,,,-99.99,,2013-01-21 16:52:00,
2013-01-21 12:02:00,30.0,12.0,30.05,South,170,4.0,9.0,46,-99.99,,,-99.99,,2013-01-21 17:02:00,
2013-01-21 12:12:00,30.0,12.0,30.04,South,170,4.0,11.0,46,-99.99,,,-99.99,,2013-01-21 17:12:00,
2013-01-21 12:22:00,30.0,12.0,30.04,South,170,4.0,11.0,46,-99.99,,,-99.99,,2013-01-21 17:22:00,
2013-01-21 12:32:00,30.0,12.0,30.04,South,170,4.0,11.0,46,-99.99,,,-99.99,,2013-01-21 17:32:00,
2013-01-21 12:42:00,30.0,13.0,30.03,South,190,4.0,13.0,48,-99.99,,,-99.99,,2013-01-21 17:42:00,
2013-01-21 12:52:00,31.0,13.0,30.01,North,0,0.0,9.0,47,-99.99,,,-99.99,,2013-01-21 17:52:00,
2013-01-21 13:02:00,31.0,13.0,30.01,North,0,0.0,9.0,47,-99.99,,,-99.99,,2013-01-21 18:02:00,
2013-01-21 13:11:00,31.0,14.0,30.00,South,190,4.0,13.0,49,-99.99,,,-99.99,,2013-01-21 18:11:00,
2013-01-21 13:22:00,31.0,14.0,30.00,South,190,4.0,13.0,49,-99.99,,,-99.99,,2013-01-21 18:22:00,
2013-01-21 13:32:00,31.0,14.0,30.00,South,190,4.0,13.0,49,-99.99,,,-99.99,,2013-01-21 18:32:00,
2013-01-21 13:42:00,31.0,14.0,29.98,North,0,0.0,2.0,49,-99.99,,,-99.99,,2013-01-21 18:42:00,
2013-01-21 13:52:00,31.0,14.0,29.98,North,0,0.0,2.0,49,-99.99,,,-99.99,,2013-01-21 18:52:00,
2013-01-21 14:00:00,31.0,16.0,29.97,SSW,200,4.0,18.0,51,-99.99,,,-99.99,,2013-01-21 19:00:00,
2013-01-21 14:02:00,31.0,14.0,29.98,North,0,0.0,2.0,49,-99.99,,,-99.99,,2013-01-21 19:02:00,
2013-01-21 14:12:00,31.0,16.0,29.97,North,0,0.0,2.0,51,-99.99,,,-99.99,,2013-01-21 19:12:00,
2013-01-21 14:22:00,31.0,16.0,29.97,North,0,0.0,2.0,51,-99.99,,,-99.99,,2013-01-21 19:22:00,
2013-01-21 14:30:00,32.0,16.0,29.96,SSW,200,2.0,13.0,51,-99.99,,,-99.99,,2013-01-21 19:30:00,
2013-01-21 14:32:00,31.0,16.0,29.97,North,0,0.0,2.0,51,-99.99,,,-99.99,,2013-01-21 19:32:00,
2013-01-21 14:42:00,31.0,16.0,29.97,SSW,200,4.0,18.0,51,-99.99,,,-99.99,,2013-01-21 19:42:00,
2013-01-21 14:52:00,31.0,16.0,29.97,SSW,200,4.0,18.0,51,-99.99,,,-99.99,,2013-01-21 19:52:00,
2013-01-21 15:12:00,32.0,16.0,29.96,SSW,200,2.0,13.0,51,-99.99,,,-99.99,,2013-01-21 20:12:00,
2013-01-21 15:22:00,32.0,16.0,29.96,SSW,200,2.0,13.0,51,-99.99,,,-99.99,,2013-01-21 20:22:00,
2013-01-21 15:52:00,32.0,15.0,29.95,North,0,0.0,4.0,49,-99.99,,,-99.99,,2013-01-21 20:52:00,
2013-01-21 16:02:00,32.0,15.0,29.95,North,0,0.0,4.0,49,-99.99,,,-99.99,,2013-01-21 21:02:00,
2013-01-21 16:12:00,32.0,15.0,29.95,North,0,0.0,4.0,49,-99.99,,,-99.99,,2013-01-21 21:12:00,
2013-01-21 16:22:00,31.0,15.0,29.92,SSW,210,2.0,18.0,50,-99.99,,,-99.99,,2013-01-21 21:22:00,
2013-01-21 16:32:00,31.0,15.0,29.92,SSW,210,2.0,18.0,50,-99.99,,,-99.99,,2013-01-21 21:32:00,
2013-01-21 16:42:00,31.0,15.0,29.92,SSW,210,2.0,18.0,50,-99.99,,,-99.99,,2013-01-21 21:42:00,
2013-01-21 16:52:00,31.0,16.0,29.91,SSW,210,2.0,11.0,52,-99.99,,,-99.99,,2013-01-21 21:52:00,
2013-01-21 17:02:00,31.0,16.0,29.91,SSW,210,2.0,11.0,52,-99.99,,,-99.99,,2013-01-21 22:02:00,
2013-01-21 17:11:00,32.0,17.0,29.90,SSW,210,2.0,11.0,53,-99.99,,,-99.99,,2013-01-21 22:11:00,
2013-01-21 17:22:00,32.0,17.0,29.90,SSW,210,2.0,11.0,53,-99.99,,,-99.99,,2013-01-21 22:22:00,
2013-01-21 17:32:00,32.0,17.0,29.90,SSW,210,2.0,11.0,53,-99.99,,,-99.99,,2013-01-21 22:32:00,
2013-01-21 17:42:00,32.0,17.0,29.90,SW,220,4.0,13.0,53,-99.99,,,-99.99,,2013-01-21 22:42:00,
2013-01-21 17:52:00,31.0,16.0,29.89,WSW,250,4.0,9.0,51,-99.99,,,-99.99,,2013-01-21 22:52:00,
2013-01-21 18:02:00,31.0,16.0,29.89,WSW,250,4.0,9.0,51,-99.99,,,-99.99,,2013-01-21 23:02:00,
2013-01-21 18:12:00,32.0,17.0,29.89,WSW,240,4.0,11.0,54,-99.99,,,-99.99,,2013-01-21 23:12:00,
2013-01-21 18:22:00,32.0,17.0,29.89,WSW,240,4.0,11.0,54,-99.99,,,-99.99,,2013-01-21 23:22:00,
2013-01-21 18:32:00,32.0,17.0,29.89,WSW,240,4.0,11.0,54,-99.99,,,-99.99,,2013-01-21 23:32:00,
2013-01-21 18:42:00,32.0,17.0,29.90,SW,220,2.0,11.0,53,-99.99,,,-99.99,,2013-01-21 23:42:00,
2013-01-21 18:52:00,32.0,17.0,29.89,SW,220,4.0,11.0,54,-99.99,,,-99.99,,2013-01-21 23:52:00,
2013-01-21 19:02:00,32.0,17.0,29.89,SW,220,4.0,11.0,54,-99.99,,,-99.99,,2013-01-22 00:02:00,
2013-01-21 19:11:00,32.0,17.0,29.89,SW,230,4.0,11.0,53,-99.99,,,-99.99,,2013-01-22 00:11:00,
2013-01-21 19:22:00,32.0,17.0,29.89,SW,230,4.0,11.0,53,-99.99,,,-99.99,,2013-01-22 00:22:00,
2013-01-21 19:32:00,32.0,17.0,29.89,SW,230,4.0,11.0,53,-99.99,,,-99.99,,2013-01-22 00:32:00,
2013-01-21 19:42:00,32.0,17.0,29.88,SW,230,4.0,9.0,53,-99.99,,,-99.99,,2013-01-22 00:42:00,
2013-01-21 19:52:00,32.0,17.0,29.87,NW,320,2.0,9.0,53,-99.99,,,-99.99,,2013-01-22 00:52:00,
2013-01-21 20:02:00,32.0,17.0,29.87,NW,320,2.0,9.0,53,-99.99,,,-99.99,,2013-01-22 01:02:00,
2013-01-21 20:12:00,32.0,17.0,29.87,NW,320,2.0,9.0,53,-99.99,,,-99.99,,2013-01-22 01:12:00,
2013-01-21 20:22:00,32.0,17.0,29.87,NW,320,2.0,9.0,53,-99.99,,,-99.99,,2013-01-22 01:22:00,
2013-01-21 20:32:00,32.0,17.0,29.87,North,350,4.0,11.0,55,-99.99,,,-99.99,,2013-01-22 01:32:00,
2013-01-21 20:42:00,31.0,18.0,29.88,North,0,0.0,11.0,56,-99.99,,,-99.99,,2013-01-22 01:42:00,
2013-01-21 20:52:00,31.0,18.0,29.88,North,0,0.0,7.0,57,-99.99,,,-99.99,,2013-01-22 01:52:00,
2013-01-21 21:02:00,31.0,18.0,29.88,North,0,0.0,7.0,57,-99.99,,,-99.99,,2013-01-22 02:02:00,
2013-01-21 21:11:00,31.0,20.0,29.88,NW,320,16.0,25.0,64,-99.99,,,-99.99,,2013-01-22 02:11:00,
2013-01-21 21:22:00,31.0,20.0,29.88,NW,320,16.0,25.0,64,-99.99,,,-99.99,,2013-01-22 02:22:00,
2013-01-21 21:32:00,30.0,19.0,29.87,NW,310,4.0,16.0,64,-99.99,,,-99.99,,2013-01-22 02:32:00,
2013-01-21 21:42:00,30.0,19.0,29.86,West,270,7.0,13.0,63,-99.99,,,-99.99,,2013-01-22 02:42:00,
2013-01-21 21:52:00,31.0,20.0,29.86,West,270,4.0,16.0,63,-99.99,,,-99.99,,2013-01-22 02:52:00,
2013-01-21 22:02:00,31.0,20.0,29.86,West,270,4.0,16.0,63,-99.99,,,-99.99,,2013-01-22 03:02:00,
2013-01-21 22:12:00,31.0,19.0,29.86,West,280,4.0,13.0,61,-99.99,,,-99.99,,2013-01-22 03:12:00,
2013-01-21 22:22:00,31.0,19.0,29.86,West,280,4.0,13.0,61,-99.99,,,-99.99,,2013-01-22 03:22:00,
2013-01-21 22:32:00,31.0,19.0,29.85,WNW,290,2.0,11.0,61,-99.99,,,-99.99,,2013-01-22 03:32:00,
2013-01-21 22:42:00,31.0,20.0,29.85,WNW,290,2.0,18.0,62,-99.99,,,-99.99,,2013-01-22 03:42:00,
2013-01-21 22:52:00,31.0,20.0,29.85,WNW,300,11.0,22.0,63,-99.99,,,-99.99,,2013-01-22 03:52:00,
2013-01-21 23:02:00,31.0,20.0,29.85,WNW,300,11.0,22.0,63,-99.99,,,-99.99,,2013-01-22 04:02:00,
2013-01-21 23:11:00,31.0,20.0,29.85,WNW,300,11.0,22.0,63,-99.99,,,-99.99,,2013-01-22 04:11:00,
2013-01-21 23:22:00,30.0,20.0,29.85,WNW,300,11.0,22.0,65,-99.99,,,-99.99,,2013-01-22 04:22:00,
2013-01-21 23:32:00,30.0,20.0,29.85,WNW,300,11.0,22.0,65,-99.99,,,-99.99,,2013-01-22 04:32:00,
2013-01-21 23:42:00,30.0,20.0,29.84,WNW,300,9.0,22.0,66,-99.99,,,-99.99,,2013-01-22 04:42:00,
2013-01-21 23:52:00,30.0,20.0,29.84,WNW,300,9.0,22.0,66,-99.99,,,-99.99,,2013-01-22 04:52:00,